AC0ID-13 Weather Reports


Display with metric or nautical units.
time (UTC)temp
F
wind
direction
speed
MPH
gust
MPH
rain 1hr
in
rain 24hr
in
rain mn
in
humidity
%
barometer
mb
20260904164510 90 105 1.0 5.0 0.00 0.00 0.00 64 1012.1
20260904164017 90 121 1.0 5.0 0.00 0.00 0.00 64 1012.1
20260904163515 90 109 0.0 3.0 0.00 0.00 0.00 64 1012.0
20260904163015 89 153 0.0 5.0 0.00 0.00 0.00 62 1012.0
20260904162510 90 193 2.0 5.0 0.00 0.00 0.00 64 1012.1
20260904162012 90 142 0.0 4.0 0.00 0.00 0.00 64 1012.1
20260904161517 90 138 1.0 3.0 0.00 0.00 0.00 65 1012.2
20260904161009 89 43 0.0 2.0 0.00 0.00 0.00 64 1012.2
20260904160514 89 293 0.0 2.0 0.00 0.00 0.00 65 1012.1
20260904160028 89 103 0.0 2.0 0.00 0.00 0.00 67 1012.1
20260904155515 88 317 0.0 4.0 0.00 0.00 0.00 66 1012.1
20260904155009 88 349 1.0 4.0 0.00 0.00 0.00 66 1012.1
20260904154527 87 177 0.0 2.0 0.00 0.00 0.00 66 1012.2
20260904154015 87 177 0.0 2.0 0.00 0.00 0.00 66 1012.2
20260904153517 87 175 0.0 2.0 0.00 0.00 0.00 67 1012.3
20260904153026 87 333 0.0 2.0 0.00 0.00 0.00 66 1012.2
20260904152515 86 5 0.0 2.0 0.00 0.00 0.00 68 1012.1
20260904152017 86 5 0.0 3.0 0.00 0.00 0.00 69 1012.2
20260904151531 85 209 0.0 3.0 0.00 0.00 0.00 69 1012.1
20260904151011 85 352 0.0 2.0 0.00 0.00 0.00 68 1012.1
20260904150513 85 128 0.0 3.0 0.00 0.00 0.00 70 1012.1
20260904150003 84 289 0.0 3.0 0.00 0.00 0.00 72 1012.1
20260904145503 84 326 0.0 4.0 0.00 0.00 0.00 71 1012.2
20260904145003 83 247 1.0 4.0 0.00 0.00 0.00 72 1012.2
20260904144503 83 260 1.0 6.0 0.00 0.00 0.00 73 1012.2
20260904144002 82 178 2.0 5.0 0.00 0.00 0.00 73 1012.2
20260904143503 82 235 1.0 4.0 0.00 0.00 0.00 75 1012.1
20260904143006 81 251 1.0 5.0 0.00 0.00 0.00 75 1012.1
20260904142503 81 257 1.0 5.0 0.00 0.00 0.00 76 1012.0
20260904142007 80 243 1.0 5.0 0.00 0.01 0.00 76 1012.0
20260904141503 80 262 0.0 6.0 0.00 0.01 0.00 77 1012.1
20260904141010 80 241 1.0 6.0 0.00 0.01 0.00 78 1012.0
20260904140512 79 152 1.0 7.0 0.00 0.01 0.00 78 1011.9
20260904140003 79 152 3.0 7.0 0.00 0.01 0.00 79 1011.8
20260904135505 78 192 0.0 5.0 0.00 0.01 0.00 80 1011.9
20260904135008 78 248 2.0 6.0 0.00 0.01 0.00 81 1011.8
20260904134522 77 181 0.0 6.0 0.00 0.01 0.00 81 1011.8
20260904134003 77 231 1.0 4.0 0.00 0.01 0.00 83 1011.8
20260904133504 76 249 1.0 4.0 0.00 0.01 0.00 84 1011.8
20260904133003 76 221 0.0 5.0 0.00 0.01 0.00 84 1011.8
20260904132504 75 227 1.0 7.0 0.00 0.01 0.00 84 1011.9
20260904132007 75 146 2.0 7.0 0.00 0.01 0.00 85 1011.9
20260904131511 75 248 3.0 7.0 0.00 0.01 0.00 85 1011.9
20260904131005 75 244 1.0 6.0 0.00 0.01 0.00 85 1011.9
20260904130503 75 232 1.0 6.0 0.00 0.01 0.00 86 1011.8
20260904130008 74 228 1.0 4.0 0.00 0.01 0.00 86 1011.8
20260904125512 74 209 0.0 4.0 0.00 0.01 0.00 86 1011.7
20260904125012 74 275 0.0 4.0 0.00 0.01 0.00 87 1011.6
20260904124508 74 263 1.0 3.0 0.00 0.01 0.00 87 1011.4
20260904124007 74 225 0.0 2.0 0.00 0.01 0.00 88 1011.4
20260904123517 73 200 0.0 2.0 0.00 0.01 0.00 88 1011.4
20260904123005 73 276 0.0 2.0 0.00 0.01 0.00 88 1011.3
20260904122506 73 244 0.0 2.0 0.00 0.01 0.00 88 1011.3
20260904122007 73 198 0.0 2.0 0.00 0.01 0.00 88 1011.3
20260904121503 73 232 0.0 1.0 0.00 0.01 0.00 88 1011.2
20260904121002 73 232 0.0 1.0 0.00 0.01 0.00 88 1011.2
20260904120507 73 232 0.0 2.0 0.00 0.01 0.00 88 1011.3
20260904120013 73 259 0.0 2.0 0.00 0.01 0.00 88 1011.3
20260904115509 73 250 0.0 1.0 0.00 0.02 0.00 88 1011.3
20260904115006 73 187 0.0 1.0 0.00 0.02 0.00 87 1011.2
20260904114519 74 255 0.0 2.0 0.00 0.03 0.00 87 1011.1
20260904114013 74 255 0.0 2.0 0.00 0.03 0.00 88 1011.1
20260904113504 74 223 0.0 2.0 0.00 0.03 0.00 88 1011.1
20260904113029 74 234 0.0 2.0 0.00 0.04 0.00 88 1011.0
20260904112517 74 243 1.0 2.0 0.00 0.05 0.00 88 1011.1
20260904112018 73 242 0.0 2.0 0.00 0.05 0.00 88 1011.1
20260904111521 73 259 0.0 2.0 0.00 0.06 0.00 89 1011.1
20260904111013 73 183 0.0 4.0 0.00 0.06 0.00 89 1011.0
20260904110503 73 213 1.0 4.0 0.00 0.07 0.00 89 1011.0
20260904110010 73 190 0.0 1.0 0.00 0.07 0.00 89 1010.9
20260904105507 73 241 0.0 3.0 0.00 0.07 0.00 89 1010.9
20260904105009 73 241 0.0 3.0 0.00 0.08 0.00 89 1010.9
20260904104514 73 265 0.0 0.0 0.00 0.08 0.00 89 1010.9
20260904104006 73 265 0.0 0.0 0.00 0.09 0.00 88 1010.9
20260904103511 73 265 0.0 0.0 0.00 0.10 0.00 88 1010.9
20260904103019 73 265 0.0 0.0 0.00 0.11 0.00 88 1010.9
20260904102512 73 265 0.0 0.0 0.00 0.13 0.00 88 1011.1
20260904102010 74 265 0.0 1.0 0.00 0.13 0.00 88 1011.0
20260904101526 74 265 0.0 1.0 0.00 0.13 0.00 87 1010.9
20260904101014 74 265 0.0 0.0 0.00 0.13 0.00 87 1011.0
20260904100507 74 265 0.0 0.0 0.00 0.13 0.00 86 1011.0
20260904100022 74 265 0.0 1.0 0.00 0.13 0.00 86 1010.9
20260904095518 75 265 0.0 1.0 0.00 0.13 0.00 86 1010.9
20260904095007 75 265 0.0 1.0 0.00 0.13 0.00 86 1010.9
20260904094510 75 265 0.0 1.0 0.00 0.13 0.00 85 1010.8
20260904094009 75 265 0.0 1.0 0.00 0.13 0.00 85 1010.7
20260904093515 75 265 0.0 1.0 0.00 0.13 0.00 85 1010.7
20260904093012 76 265 0.0 2.0 0.00 0.13 0.00 84 1010.7
20260904092514 76 265 0.0 3.0 0.00 0.13 0.00 84 1010.7
20260904092012 76 259 0.0 4.0 0.00 0.13 0.00 84 1010.7
20260904091524 76 173 2.0 4.0 0.00 0.13 0.00 85 1010.6
20260904091011 76 165 1.0 4.0 0.00 0.13 0.00 85 1010.6
20260904090511 76 217 0.0 7.0 0.00 0.13 0.00 85 1010.5
20260904090028 76 242 0.0 7.0 0.00 0.13 0.00 85 1010.5
20260904085506 76 238 1.0 4.0 0.00 0.13 0.00 85 1010.4
20260904085010 76 183 1.0 4.0 0.00 0.13 0.00 85 1010.4
20260904084527 76 251 1.0 4.0 0.00 0.13 0.00 85 1010.4
20260904084020 76 223 1.0 7.0 0.00 0.13 0.00 85 1010.3
20260904083509 76 200 2.0 7.0 0.00 0.13 0.00 85 1010.2
20260904083019 76 239 1.0 5.0 0.00 0.13 0.00 85 1010.1
20260904082509 76 255 2.0 5.0 0.00 0.13 0.00 85 1010.1
20260904082015 76 253 1.0 6.0 0.00 0.13 0.00 85 1010.1
20260904081522 76 232 2.0 6.0 0.00 0.13 0.00 86 1010.0
20260904081013 76 215 0.0 5.0 0.00 0.13 0.00 86 1010.0
20260904080512 76 253 2.0 5.0 0.00 0.13 0.00 86 1010.0
20260904080025 76 163 1.0 5.0 0.00 0.13 0.00 86 1010.1
20260904075512 76 251 0.0 3.0 0.00 0.13 0.00 87 1010.2
20260904075013 76 255 0.0 3.0 0.00 0.13 0.00 87 1010.2
20260904074532 76 241 1.0 3.0 0.00 0.13 0.00 87 1010.2
20260904074013 76 274 0.0 3.0 0.00 0.13 0.00 87 1010.3
20260904073517 76 261 0.0 3.0 0.00 0.13 0.00 87 1010.3
20260904073040 76 213 0.0 0.0 0.00 0.13 0.00 87 1010.4
20260904072509 76 263 0.0 0.0 0.00 0.13 0.00 87 1010.4
20260904072013 76 112 0.0 0.0 0.00 0.13 0.00 87 1010.5
20260904071514 76 167 0.0 1.0 0.00 0.13 0.00 88 1010.5
20260904071017 76 167 0.0 1.0 0.00 0.13 0.00 88 1010.5
20260904070514 76 171 0.0 1.0 0.00 0.13 0.00 88 1010.6
20260904070021 76 86 0.0 0.0 0.00 0.13 0.00 88 1010.6
20260904065515 76 86 0.0 0.0 0.00 0.13 0.00 88 1010.6
20260904065017 76 136 0.0 0.0 0.00 0.13 0.00 88 1010.7
20260904064525 76 175 0.0 2.0 0.00 0.13 0.00 88 1010.7
20260904064014 76 105 0.0 2.0 0.00 0.13 0.00 88 1010.7
20260904063517 76 132 0.0 1.0 0.00 0.13 0.00 88 1010.8
20260904063019 76 88 0.0 1.0 0.00 0.13 0.00 88 1010.8
20260904062515 76 130 0.0 0.0 0.00 0.13 0.00 88 1010.8
20260904062020 76 157 0.0 0.0 0.00 0.13 0.00 88 1010.8
20260904061537 76 108 0.0 0.0 0.00 0.13 0.00 88 1010.8
20260904061020 76 115 0.0 1.0 0.00 0.13 0.00 88 1010.8
20260904060516 76 159 0.0 3.0 0.00 0.13 0.00 88 1010.8
20260904060017 76 159 0.0 3.0 0.00 0.13 0.00 88 1010.8
20260904055513 76 120 0.0 2.0 0.00 0.13 0.00 88 1010.8
20260904055013 76 120 0.0 4.0 0.00 0.13 0.00 87 1010.7
20260904054526 76 120 0.0 4.0 0.00 0.13 0.00 87 1010.8
20260904054012 76 84 0.0 4.0 0.00 0.13 0.00 87 1010.8
20260904053512 76 118 1.0 4.0 0.00 0.13 0.00 87 1010.7
20260904053034 77 101 0.0 4.0 0.00 0.13 0.00 87 1010.8
20260904052514 77 142 0.0 3.0 0.00 0.13 0.00 87 1010.9
20260904052019 77 138 1.0 5.0 0.00 0.13 0.00 87 1010.8
20260904051532 77 163 1.0 5.0 0.00 0.13 0.00 87 1010.8
20260904051005 77 137 1.0 4.0 0.00 0.13 0.00 87 1010.8
20260904050508 77 90 1.0 4.0 0.00 0.13 0.00 87 1010.8
20260904050014 77 121 0.0 6.0 0.00 0.13 0.00 87 1010.8
20260904045503 77 124 1.0 6.0 0.00 0.13 0.13 87 1010.8
20260904045013 77 94 1.0 7.0 0.00 0.13 0.13 87 1010.8
20260904044529 77 113 1.0 7.0 0.00 0.13 0.13 86 1010.8
20260904044014 77 133 1.0 3.0 0.00 0.13 0.13 87 1010.8
20260904043503 77 95 0.0 3.0 0.00 0.13 0.13 86 1010.8
20260904043014 77 112 0.0 6.0 0.00 0.13 0.13 86 1010.8
20260904042506 77 194 1.0 6.0 0.00 0.13 0.13 86 1010.7
20260904042003 77 117 0.0 4.0 0.00 0.13 0.13 86 1010.8
20260904041515 77 123 1.0 6.0 0.00 0.13 0.13 86 1010.7
20260904041005 77 146 1.0 6.0 0.00 0.13 0.13 86 1010.8
20260904040510 77 120 2.0 6.0 0.00 0.13 0.13 86 1010.8
20260904040008 77 146 1.0 6.0 0.00 0.13 0.13 86 1010.8
20260904035510 77 136 2.0 5.0 0.00 0.13 0.13 86 1010.8
20260904035009 77 141 1.0 5.0 0.00 0.13 0.13 85 1010.9
20260904034507 77 162 0.0 4.0 0.00 0.13 0.13 85 1010.8
20260904034007 77 137 1.0 4.0 0.00 0.13 0.13 85 1010.9
20260904033511 77 130 0.0 4.0 0.00 0.13 0.13 85 1010.9
20260904033027 78 132 1.0 6.0 0.00 0.13 0.13 85 1010.9
20260904032503 78 138 1.0 6.0 0.00 0.13 0.13 85 1010.9
20260904032012 78 163 1.0 4.0 0.00 0.13 0.13 85 1010.9
20260904031530 78 152 0.0 5.0 0.00 0.13 0.13 85 1010.9
20260904031004 78 107 0.0 5.0 0.00 0.13 0.13 85 1011.0
20260904030502 78 146 1.0 5.0 0.00 0.13 0.13 84 1010.9
20260904030007 78 71 1.0 5.0 0.00 0.13 0.13 84 1010.8
20260904025507 78 120 1.0 5.0 0.00 0.13 0.13 84 1010.8
20260904025007 78 175 2.0 5.0 0.00 0.13 0.13 84 1010.9
20260904024512 78 108 2.0 5.0 0.00 0.13 0.13 83 1010.9
20260904024010 78 113 1.0 5.0 0.00 0.13 0.13 83 1010.9
20260904023515 78 156 1.0 4.0 0.00 0.13 0.13 82 1010.9
20260904023018 79 146 1.0 4.0 0.00 0.13 0.13 83 1010.9
20260904022511 79 142 0.0 4.0 0.00 0.13 0.13 83 1010.8
20260904022012 79 126 1.0 5.0 0.00 0.13 0.13 83 1010.8
20260904021512 79 134 1.0 7.0 0.00 0.13 0.13 82 1010.8
20260904021011 79 155 1.0 7.0 0.00 0.13 0.13 82 1010.8
20260904020515 79 144 1.0 4.0 0.00 0.13 0.13 82 1010.7
20260904020040 79 155 0.0 4.0 0.00 0.13 0.13 82 1010.6
20260904015507 79 113 1.0 4.0 0.00 0.13 0.13 82 1010.3
20260904015007 79 127 1.0 5.0 0.00 0.13 0.13 82 1010.6
20260904014511 79 96 1.0 7.0 0.00 0.13 0.13 82 1010.5
20260904014007 79 116 2.0 7.0 0.00 0.13 0.13 82 1010.4
20260904013510 79 152 1.0 8.0 0.00 0.13 0.13 82 1010.4
20260904013015 79 136 2.0 8.0 0.00 0.13 0.13 82 1010.5
20260904012514 79 84 3.0 8.0 0.00 0.13 0.13 82 1010.6
20260904012010 79 175 1.0 3.0 0.00 0.13 0.13 81 1010.6
20260904011519 79 140 0.0 5.0 0.00 0.13 0.13 81 1010.7
20260904011013 79 138 1.0 5.0 0.00 0.13 0.13 81 1010.7
20260904010514 79 133 1.0 5.0 0.00 0.13 0.13 80 1010.7
20260904010016 79 126 1.0 5.0 0.00 0.13 0.13 80 1010.7
20260904005513 80 132 1.0 5.0 0.00 0.13 0.13 80 1010.7
20260904005017 80 154 1.0 6.0 0.00 0.13 0.13 80 1010.7
20260904004513 80 139 1.0 6.0 0.00 0.13 0.13 79 1010.7
20260904004010 80 132 1.0 6.0 0.00 0.13 0.13 79 1010.5
20260904003509 80 129 1.0 6.0 0.00 0.13 0.13 79 1010.5
20260904003014 80 100 2.0 7.0 0.00 0.13 0.13 78 1010.5
20260904002508 80 117 1.0 7.0 0.00 0.13 0.13 78 1010.5
20260904002012 80 115 2.0 7.0 0.00 0.13 0.13 78 1010.5
20260904001519 80 146 2.0 8.0 0.00 0.13 0.13 77 1010.5
20260904001009 81 151 2.0 8.0 0.00 0.13 0.13 77 1010.4
20260904000511 81 125 2.0 7.0 0.00 0.13 0.13 77 1010.3
20260904000024 81 130 2.0 7.0 0.00 0.13 0.13 77 1010.3
20260903235513 81 125 3.0 7.0 0.00 0.13 0.13 76 1010.2
20260903235014 81 121 3.0 7.0 0.00 0.13 0.13 76 1010.2
20260903234527 81 152 2.0 8.0 0.00 0.13 0.13 75 1010.1
20260903234017 81 151 2.0 9.0 0.00 0.13 0.13 75 1010.1
20260903233514 81 137 3.0 9.0 0.00 0.13 0.13 74 1010.2
20260903233018 81 181 4.0 9.0 0.00 0.13 0.13 74 1010.2
20260903232515 82 183 2.0 8.0 0.00 0.13 0.13 74 1010.2
20260903232010 82 142 2.0 7.0 0.00 0.13 0.13 73 1010.2
20260903231517 82 132 2.0 8.0 0.00 0.13 0.13 73 1010.2
20260903231011 82 147 2.0 8.0 0.00 0.13 0.13 73 1010.3
20260903230513 82 148 1.0 7.0 0.00 0.13 0.13 73 1010.3
20260903230033 82 130 2.0 7.0 0.00 0.13 0.13 72 1010.3
20260903225512 82 178 2.0 9.0 0.00 0.13 0.13 72 1010.3
20260903225013 82 157 3.0 9.0 0.00 0.13 0.13 71 1010.1
20260903224527 83 225 2.0 8.0 0.00 0.13 0.13 71 1010.2
20260903224012 83 107 3.0 9.0 0.00 0.13 0.13 70 1010.2
20260903223516 83 141 4.0 9.0 0.00 0.13 0.13 70 1010.2
20260903223039 83 86 3.0 9.0 0.00 0.13 0.13 70 1010.2
20260903222522 83 86 2.0 7.0 0.00 0.13 0.13 70 1010.2
20260903222014 82 161 1.0 10.0 0.00 0.13 0.13 71 1010.3
20260903221536 82 142 3.0 10.0 0.00 0.13 0.13 70 1010.2
20260903221018 82 150 3.0 9.0 0.00 0.13 0.13 70 1010.1
20260903220509 82 125 2.0 9.0 0.00 0.13 0.13 70 1010.0
20260903220025 83 34 3.0 9.0 0.00 0.13 0.13 69 1010.1
20260903215513 83 215 3.0 10.0 0.00 0.13 0.13 68 1010.2
20260903215016 84 136 4.0 12.0 0.00 0.13 0.13 67 1010.2
20260903214523 84 160 3.0 12.0 0.00 0.13 0.13 68 1010.3
20260903214015 84 107 3.0 9.0 0.00 0.13 0.13 67 1010.4
20260903213516 84 119 3.0 8.0 0.00 0.13 0.13 66 1010.5
20260903213031 84 61 1.0 7.0 0.00 0.13 0.13 66 1010.6
20260903212514 85 132 2.0 9.0 0.00 0.13 0.13 65 1010.6
20260903212019 85 130 2.0 9.0 0.00 0.13 0.13 65 1010.6
20260903211533 84 121 2.0 13.0 0.00 0.13 0.13 66 1010.6
20260903211012 84 110 2.0 13.0 0.00 0.13 0.13 65 1010.4
20260903210514 84 92 4.0 11.0 0.00 0.13 0.13 64 1010.3
20260903210034 85 240 2.0 12.0 0.00 0.13 0.13 63 1010.3
20260903205518 85 138 2.0 12.0 0.00 0.13 0.13 63 1010.2
20260903205015 85 136 4.0 11.0 0.00 0.13 0.13 62 1010.3
20260903204530 85 78 3.0 11.0 0.00 0.13 0.13 62 1010.5
20260903204015 85 146 5.0 11.0 0.00 0.13 0.13 61 1010.1
20260903203517 85 138 2.0 11.0 0.00 0.13 0.13 61 1010.2
20260903203027 85 92 3.0 11.0 0.00 0.13 0.13 62 1010.4
20260903202515 85 191 3.0 12.0 0.00 0.13 0.13 62 1010.7
20260903202018 85 186 2.0 12.0 0.00 0.13 0.13 63 1010.9
20260903201527 84 147 3.0 10.0 0.00 0.13 0.13 62 1010.9
20260903201003 84 121 3.0 11.0 0.00 0.13 0.13 63 1010.9
20260903200510 84 128 4.0 11.0 0.00 0.13 0.13 64 1010.9
20260903200009 83 123 2.0 9.0 0.00 0.13 0.13 65 1010.8
20260903195504 82 125 3.0 11.0 0.00 0.13 0.13 65 1010.9
20260903195006 82 138 3.0 11.0 0.00 0.13 0.13 65 1010.9
20260903194533 82 165 3.0 12.0 0.00 0.13 0.13 65 1011.0
20260903194002 82 142 3.0 13.0 0.00 0.13 0.13 64 1011.0
20260903193502 83 162 4.0 13.0 0.00 0.13 0.13 63 1011.0
20260903193003 82 135 3.0 9.0 0.00 0.13 0.13 65 1011.2
20260903192502 82 198 3.0 9.0 0.00 0.13 0.13 64 1011.1
20260903192003 83 162 3.0 8.0 0.00 0.13 0.13 64 1011.2
20260903191505 83 121 2.0 7.0 0.00 0.13 0.13 63 1011.4
20260903191003 83 123 2.0 9.0 0.00 0.13 0.13 64 1011.5
20260903190505 83 145 4.0 9.0 0.00 0.13 0.13 63 1011.7
20260903190007 83 151 2.0 8.0 0.00 0.13 0.13 63 1011.5
20260903185507 83 194 4.0 9.0 0.00 0.13 0.13 62 1011.5
20260903185002 84 220 2.0 10.0 0.00 0.13 0.13 62 1011.5
20260903184504 84 163 4.0 10.0 0.00 0.13 0.13 60 1011.6
20260903184009 84 157 3.0 9.0 0.00 0.13 0.13 62 1011.6
20260903183510 84 156 2.0 10.0 0.00 0.13 0.13 63 1011.5
20260903183003 83 210 1.0 10.0 0.00 0.13 0.13 65 1011.5
20260903182507 84 135 4.0 12.0 0.00 0.13 0.13 61 1011.7
20260903182003 84 150 3.0 12.0 0.00 0.13 0.13 62 1011.7
20260903181503 83 125 1.0 9.0 0.00 0.13 0.13 65 1011.9
20260903181005 82 170 2.0 10.0 0.00 0.13 0.13 65 1011.9
20260903180505 81 153 4.0 10.0 0.00 0.13 0.13 67 1012.0
20260903180007 81 145 2.0 9.0 0.00 0.13 0.13 68 1012.0
20260903175502 82 130 1.0 7.0 0.00 0.13 0.13 67 1012.0
20260903175004 81 155 0.0 7.0 0.00 0.13 0.13 68 1012.0
20260903174519 80 132 3.0 8.0 0.00 0.13 0.13 71 1011.9
20260903174011 79 125 2.0 8.0 0.00 0.13 0.13 71 1011.9
20260903173503 79 269 1.0 9.0 0.00 0.13 0.13 70 1011.9
20260903173011 80 123 2.0 9.0 0.00 0.13 0.13 69 1012.0
20260903172513 80 147 0.0 7.0 0.00 0.13 0.13 70 1012.0
20260903172002 81 152 1.0 7.0 0.00 0.13 0.13 68 1011.9
20260903171514 82 173 3.0 7.0 0.00 0.13 0.13 66 1011.6
20260903171003 81 90 1.0 8.0 0.00 0.13 0.13 69 1011.7
20260903170505 80 169 3.0 8.0 0.00 0.13 0.13 69 1011.7
20260903170012 80 117 1.0 8.0 0.00 0.13 0.13 71 1011.8
20260903165503 79 185 2.0 8.0 0.00 0.13 0.13 73 1011.9
20260903165003 80 171 3.0 7.0 0.00 0.13 0.13 71 1011.9